This demonstration page uses our WeatherBlox Daily Observations layout. Learn more.

41.55636, -103.73856

Hourly Observations for January 16, 2020

Temp ( °F °C ) Dew Point ( °F °C ) Humidity (%) Winds ( mph kmh ) Pressure ( in mb ) Visibility ( mi km ) Precip ( " mm )
12:58 am 00:58 Clear 29 -1.8 9 -13 42 42 E 10 17 30.48 1032 10 16.0934 0 0
1:58 am 01:58 Clear 22 -5.8 12 -11 67 67 ESE 13 20 30.54 1034 10 16.0934 0 0
2:58 am 02:58 Clear 18 -7.6 12 -11.2 76 76 ESE 16 26 30.54 1034 10 16.0934 0 0
3:58 am 03:58 Clear 15 -9.4 11 -11.9 82 82 SE 3 6 30.54 1034 10 16.0934 0 0
4:58 am 04:58 Clear 17 -8.6 10 -12.3 75 75 Calm 30.53 1034 10 16.0934 0 0
5:58 am 05:58 Clear 17 -8.5 12 -11.3 80 80 SSE 14 22 30.51 1033 10 16.0934 0 0
6:58 am 06:58 Clear 18 -8 12 -11.3 77 77 ESE 8 13 30.49 1033 10 16.0934 0 0
7:58 am 07:58 Clear 18 -7.9 12 -11 79 79 E 6 9 30.45 1031 10 16.0934 0 0
8:58 am 08:58 Clear 20 -6.8 13 -10.8 73 73 S 29 46 30.39 1029 10 16.0934 0 0
9:58 am 09:58 Clear 20 -6.4 11 -11.5 67 67 S 31 50 30.37 1029 10 16.0934 0 0
10:58 am 10:58 Clear 26 -3.5 10 -12.5 50 50 SSW 32 52 30.34 1027 10 16.0934 0 0
11:58 am 11:58 Clear 24 -4.3 10 -12.4 54 54 SSW 35 56 30.36 1028 10 16.0934 0 0
12:58 pm 12:58 Mostly Clear 26 -3.5 7 -13.8 45 45 SSW 44 70 30.34 1027 10 16.0934 0 0
1:59 pm 13:59 Mostly Clear 27 -2.6 5 -15.1 38 38 SSW 41 67 30.35 1028 10 16.0934 0 0
2:58 pm 14:58 Sunny 28 -2.5 6 -14.4 40 40 S 38 61 30.35 1028 10 16.0934 0 0
3:58 pm 15:58 Mostly Sunny 29 -1.9 7 -14 39 39 S 39 63 30.35 1028 10 16.0934 0 0
4:58 pm 16:58 Sunny 30 -0.9 7 -13.9 37 37 S 37 59 30.34 1027 10 16.0934 0 0
5:58 pm 17:58 Sunny 32 0 6 -14.7 32 32 S 38 61 30.31 1026 10 16.0934 0 0
6:58 pm 18:58 Sunny 33 0.6 6 -14.4 32 32 S 38 61 30.24 1024 10 16.0934 0 0
7:58 pm 19:58 Sunny 37 2.7 6 -14.5 27 27 S 32 52 30.21 1023 10 16.0934 0 0
8:58 pm 20:58 Sunny 41 5.2 1 -17.4 18 18 S 35 56 30.14 1021 7 11.26538 0 0
9:58 pm 21:58 Mostly Cloudy with Haze 41 5 2 -16.8 19 19 S 26 43 30.16 1021 6 9.65604 0 0
10:58 pm 22:58 Mostly Cloudy 39 3.9 1 -17.3 20 20 S 15 24 30.14 1021 7 11.26538 0 0
11:58 pm 23:58 Partly Cloudy 37 2.7 3 -16.1 24 24 S 23 37 30.12 1020 9 14.48406 0 0

Powered by AerisWeather